Regional Weather Roundup
Issued by NWS Charleston, SC

Current Version | Previous Version | Graphics & Text | Print | Product List | Glossary On
Versions: 1 2 3 4 5 6 7 8 9 10 11 12 13 14 15 16 17 18 19 20 21 22 23 24 25 26 27 28 29 30 31 32 33 34 35 36 37 38 39 40 41 42 43 44 45 46 47 48 49 50
000 ASUS42 KCHS 100912 RWRCHS REGIONAL WEATHER ROUNDUP NATIONAL WEATHER SERVICE CHARLESTON SC 400 AM EST SAT DEC 10 2016 NOTE: "FAIR" INDICATES FEW OR NO CLOUDS BELOW 12,000 FEET WITH NO SIGNIFICANT WEATHER AND/OR OBSTRUCTIONS TO VISIBILITY. NOT ALL STATIONS ARE QUALITY CONTROLLED. USE DATA WITH CAUTION... ESPECIALLY DEWPOINT OBSERVATIONS. SCZ027-030-031-034>040-042>050-101000- ...SOUTHEAST SOUTH CAROLINA... CITY SKY/WX TMP DP RH WIND PRES REMARKS N CHARLESTON CLEAR 33 22 63 CALM 30.49R WATERFRONT PRK N/A 39 29 67 NE10 30.47R WCI 32 MOUNT PLEASANT NOT AVBL JOHNS ISLAND FAIR 37 23 56 N7 30.48S WCI 32 PINOPOLIS N/A 37 28 70 NE14 30.41R WCI 29 MONCKS CORNER FAIR 32 19 59 NE7 30.49S WCI 26 SUMMERVILLE FAIR 30 30 100 CALM 30.50R BEAUFORT MCAS CLEAR 35 24 64 NE6 30.49R WCI 30 BEAUFORT ARPT FAIR 39 28 65 NE8 30.48S WCI 34 HILTON HEAD IS CLEAR 39 27 60 N7 30.49R WCI 34 WALTERBORO SUNNY 30 30 100 CALM 30.51R ALLENDALE FAIR 32 25 74 CALM 30.49R ...SOUTHERN MIDLANDS AND PEE DEE... CITY SKY/WX TMP DP RH WIND PRES REMARKS GEORGETOWN NOT AVBL KINGSTREE FAIR 30 21 69 N5 30.51R WCI 25 ORANGEBURG CLEAR 31 20 63 NE6 30.49S WCI 25 BARNWELL NOT AVBL AIKEN FAIR 27 21 80 NE6 30.51F WCI 20 MANNING FAIR 30 23 74 CALM 30.51R COLUMBIA CLEAR 26 22 84 CALM 30.51R SUMTER CLEAR 27 19 73 NE9 30.49R WCI 17 FLORENCE CLEAR 28 21 75 N8 30.52S WCI 20 MYRTLE BEACH CLEAR 30 19 64 N8 30.52S WCI 23 N MYRTLE BEACH CLEAR 30 22 72 N8 30.50R WCI 22 $$ GAZ063-065-086>088-099>101-113>116-118-119-134>141-150-101000- ...SOUTHEAST GEORGIA... CITY SKY/WX TMP DP RH WIND PRES REMARKS SAVANNAH ARPT CLEAR 32 28 85 N3 30.49R HUNTER AAF CLEAR 33 30 89 N3 30.45R FORT STEWART CLEAR 31 26 84 CALM 30.46R STATESBORO CLEAR 29 28 99 CALM 30.49R SYLVANIA SUNNY N/A N/A N/A CALM 30.49R CLAXTON FAIR 30 30 100 CALM 30.50R ...CSRA...CENTRAL AND FAR SOUTHEAST GEORGIA... CITY SKY/WX TMP DP RH WIND PRES REMARKS THOMSON CLEAR 26 26 100 CALM 30.53S AUGUSTA-BUSH CLEAR 28 23 81 N5 30.49S WCI 23 AUGUSTA-DANIEL CLEAR 31 22 69 N3 30.49R SWAINSBORO FAIR 28 27 93 CALM 30.50R VIDALIA CLEAR 32 30 93 N5 30.49R WCI 27 EASTMAN FAIR 28 20 72 CALM 30.52R HAZLEHURST FAIR 31 31 99 CALM 30.48R ALMA PTCLDY 29 27 92 N3 30.47R WAYCROSS CLEAR 32 31 96 CALM 30.47S JESUP FAIR 32 32 100 CALM 30.48R BAXLEY FAIR 32 32 100 CALM 30.48R BRUNSWICK PTCLDY 37 32 81 N5 30.47R WCI 34 SAINT SIMONS CLEAR 41 34 76 N8 30.44R $$ SCZ027-028-034-036>038-045-046-048>050-GAZ119-141-101000- ...LAKE AND SUPPLEMENTAL COASTAL OBSERVATIONS... STATION/POSITION TIME TEMP WIND PRES WAVE SWELL AIR SEA DIR/SP/G HT/PER HT/PER/DIR (UTC) (F) (DEG/KT/KT) (MB) (FT/S) (FT/S/D) WINYAH BAY NOT AVBL LAKE MURRAY 0820 32 10/ 2/ 5 1032.2 ACE BASIN NERRS 0745 34 CALM 1032.0 FORT PULASKI 0848 44 59 40/ 13/ 17 1032.0R SAPELO ISLAND 0800 45 360/ 9 1031.0 $$ ANZ835-935-AMZ111-154-330-350-352-354-370-450-454-472-101000- ...C-MAN AND BUOY OBSERVATIONS... STATION/POSITION TIME TEMP WIND PRES WAVE SWELL AIR SEA DIR/SP/G HT/PER HT/PER/DIR (UTC) (F) (DEG/KT/KT) (MB) (FT/S) (FT/S/D) BUOY 41004 0750 50 73 20/ 14/ 19 1030.2 4/ 5 2/ 90/ 8 BUOY 41008 0850 51 62 40/ 14/ 17 1030.5R 3/ 5 2/ 90/ 8 FOLLY BEACH CMAN 0800 42 30/ 15/ 17 1032.1R CAPERS NEARSHORE 0808 44 60 40/ 16/ 23 1031.5R FRIPP NEARSHORE 0808 46 60 40/ 16/ 21 1031.3R STATION/POSITION TIME TEMP WIND PRES WAVE SWELL AIR SEA DIR/SP/G HT/PER HT/PER/DIR (UTC) (F) (DEG/KT/KT) (MB) (FT/S) (FT/S/D) 5E ST. MARYS GA 0900 64 N/A 4/ 5 FRYING PAN BUOY 0850 45 72 360/ 16/ 19 1031.0F 3/ 5 2/ 90/ 8 BUOY 41025 0850 42 77 340/ 14/ 19 1031.1R 5/ 9 3/ 50/ 9 CAPE LOOKOUT NC 0800 37 330/ 15/ 18 1031.8R BUOY 41002 0850 58 73 360/ 14/ 17 1026.7F 6/ 8 5/ 30/ 8 BUOY 41010 NOT AVBL ST AUGUSTINE FL 0900 56 63 20/ 20/ 22 1028.8R $$

USA.gov is the U.S. government's official web portal to all federal, state and local government web resources and services.